Regional Weather Roundup
Issued by NWS Newport/Morehead, NC

Current Version | Previous Version | Text Only | Print | Product List | Glossary Off
Versions: 1 2 3 4 5 6 7 8 9 10 11 12 13 14 15 16 17 18 19 20 21 22 23 24 25 26 27 28 29 30 31 32 33 34 35 36 37 38 39 40 41 42 43 44 45 46 47 48 49 50
000 ASUS42 KMHX 030525 RWRMHX WEATHER ROUNDUP FOR EASTERN NORTH CAROLINA NATIONAL WEATHER SERVICE NEWPORT/MOREHEAD CITY NC 100 AM EDT WED JUN 03 2015 NOTE: "FAIR" INDICATES FEW OR NO CLOUDS BELOW 12,000 FEET WITH NO SIGNIFICANT WEATHER AND/OR OBSTRUCTIONS TO VISIBILITY NCZ015>017-031-032-045>047-102-103-030600- NORTH COAST CITY SKY/WX TMP DP RH WIND PRES REMARKS EDENTON N/A 68 67 97 NE5 30.02F ELIZABETH CITY CLOUDY 68 67 96 NE8 30.03F KITTY HAWK N/A 67 66 99 CALM 30.01F MANTEO CLOUDY 69 68 97 NE3 30.03S $$ NCZ045>047-081-094-103-104-030600- CENTRAL COAST CITY SKY/WX TMP DP RH WIND PRES REMARKS FRISCO CLOUDY 72 67 84 SW3 30.01F SWANQUARTER N/A 70 N/A N/A NE6 29.97S $$ NCZ095-097-098-100-101-030600- SOUTHERN COAST CITY SKY/WX TMP DP RH WIND PRES REMARKS BEAUFORT CLOUDY 73 65 75 SE3 30.00F CEDAR ISLAND N/A 73 N/A N/A E1 30.03F JACKSONVILLE CLOUDY 69 68 96 CALM 29.99F PINEY ISLAND CLOUDY N/A N/A N/A E3 30.00F WILMINGTON CLOUDY 72 70 93 NE3 29.98F $$ NCZ011>013-027>030-043-044-078>080-089-090>093-098-030600- COASTAL PLAIN CITY SKY/WX TMP DP RH WIND PRES REMARKS AHOSKIE CLOUDY 68 67 97 NE3 30.03F CLINTON CLOUDY 68 68 100 CALM 30.01S ELIZABETHTOWN MOCLDY 69 69 100 CALM 29.98F GOLDSBORO LGT RAIN 70 70 100 CALM 29.99S GREENVILLE RAIN 72 72 100 CALM 30.03S HAVELOCK CLOUDY 71 68 90 SE5 30.01F KENANSVILLE CLOUDY 69 68 97 CALM 30.01F FOG KINSTON LGT RAIN 71 69 95 E3 30.01F NEW BERN CLOUDY 69 67 93 CALM 30.01F FOG RICHLANDS CLOUDY 66 63 88 CALM 30.00F ROCKY MOUNT CLOUDY 70 69 97 CALM 30.01F WASHINGTON LGT RAIN 69 69 98 CALM 30.01F WHITEVILLE MOCLDY 71 69 94 CALM 29.98F $$ AMZ130-135-150-152-154-156-158-170-250-252-270-ANZ085-086-088-633-658-670-030600- MARINE OBSERVATIONS STATION/POSITION TIME TEMP WIND PRES WAVE SWELL AIR SEA DIR/SP/G HT/PER HT/PER (UTC) (F) (DEG/KT/KT) (MB) (FT/S) (FT/S) CHESAPEAKE LIGHT 0500 66 30/ 17/ 18 1017.2 64 E VA BEACH 0450 72 73 210/ 4/ 6 1015.9 4/ 7 3/ 7 DUCK 0500 64 58 360/ 7/ 10 1015.6 2 E DUCK 0441 62 N/A 3/ 8 OREGON INLET 0500 70 75 350/ 3/ 4 1016.4 13E OREGON INLT 0500 76 N/A 3/ 8 HATTERAS CG 0500 75 78 200/ 2/ 2 1015.7 DIAMOND BUOY 0450 77 81 270/ 2/ 4 1016.2 3/ 8 3/ 8 CAPE LOOKOUT 0500 75 30/ 6/ 7 1015.9 BEAUFORT LAB 0500 75 79 130/ 4/ 6 1015.1 30 SE NEW RVR IN NOT AVBL 27 SE WRIGHTSVLE 0500 78 180/ 4/ 6 N/A 5 SE WRIGHTSVLE 0408 79 78 170/ 10/ 14 1015.6 225 S CAPE HAT 0450 77 77 170/ 8/ 10 1017.2 3/ 8 3/ 8 41 SE CHARLESTON 0450 80 80 190/ 8/ 10 1014.7 2/ 8 2/ 8 $$

USA.gov is the U.S. government's official web portal to all federal, state and local government web resources and services.